Location: Asheville, NC
(35.6000°N, 82.5500°W)
Time: 18:28:23
(UTC-04:00)

STRAND 1 - Pass Details

Date: 13 March 2018
Orbit: 769 x 781 km, 98.5° (Epoch: 20 June)

Event Time Altitude Azimuth Distance (km) Brightness Sun altitude
Rises 22:19:31 0° 353° (N) 3,260 ? -33.3°
Reaches altitude 10° 22:22:36 10° 334° (NNW) 2,326 ? -33.8°
Maximum altitude 22:25:47 17° 295° (WNW) 1,888 ? -34.4°
Drops below altitude 10° 22:28:57 10° 256° (WSW) 2,313 ? -35.0°
Sets 22:32:01 0° 237° (WSW) 3,233 ? -35.6°
